TimeMDT,TemperatureF,Dew PointF,Humidity,Sea Level PressureIn,VisibilityMPH,Wind Direction,Wind SpeedMPH,Gust SpeedMPH,PrecipitationIn,Events,Conditions,WindDirDegrees,DateUTC
12:53 AM,64.0,44.1,48,29.72,10.0,WSW,8.1,-,N/A,,Mostly Cloudy,250,2013-09-19 06:53:00
1:53 AM,63.0,45.0,52,29.73,10.0,NNW,5.8,-,N/A,,Mostly Cloudy,340,2013-09-19 07:53:00
2:53 AM,61.0,45.0,56,29.76,10.0,NNE,4.6,-,N/A,,Mostly Cloudy,30,2013-09-19 08:53:00
3:53 AM,59.0,39.9,49,29.79,10.0,ENE,4.6,-,N/A,,Mostly Cloudy,60,2013-09-19 09:53:00
4:53 AM,55.9,39.0,53,29.84,10.0,NE,10.4,-,N/A,,Mostly Cloudy,40,2013-09-19 10:53:00
5:53 AM,54.0,39.9,59,29.91,10.0,NW,9.2,-,N/A,,Scattered Clouds,310,2013-09-19 11:53:00
6:53 AM,51.1,42.1,71,29.92,10.0,NNW,6.9,-,N/A,,Scattered Clouds,340,2013-09-19 12:53:00
7:53 AM,54.0,44.1,69,29.93,10.0,ENE,8.1,-,N/A,,Scattered Clouds,60,2013-09-19 13:53:00
8:53 AM,55.9,43.0,62,29.97,10.0,NE,11.5,-,N/A,,Scattered Clouds,40,2013-09-19 14:53:00
9:53 AM,57.9,45.0,62,29.98,10.0,Variable,3.5,-,N/A,,Scattered Clouds,0,2013-09-19 15:53:00
10:53 AM,59.0,46.9,64,30.01,10.0,NNW,10.4,-,N/A,,Mostly Cloudy,330,2013-09-19 16:53:00
11:29 AM,59.0,46.4,63,30.18,10.0,North,9.2,-,N/A,,Mostly Cloudy,350,2013-09-19 17:29:00
11:53 AM,59.0,44.1,58,30.01,10.0,North,9.2,-,N/A,,Mostly Cloudy,10,2013-09-19 17:53:00
12:53 PM,57.9,41.0,53,30.01,10.0,North,9.2,19.6,0.00,Rain,Light Rain,360,2013-09-19 18:53:00
1:53 PM,63.0,42.1,46,29.97,10.0,NNW,6.9,-,0.00,,Scattered Clouds,340,2013-09-19 19:53:00
2:53 PM,63.0,41.0,45,29.97,10.0,Variable,6.9,-,N/A,,Scattered Clouds,0,2013-09-19 20:53:00
3:53 PM,64.9,41.0,42,29.97,10.0,North,6.9,-,N/A,,Scattered Clouds,360,2013-09-19 21:53:00
4:53 PM,63.0,42.1,46,29.98,10.0,Variable,3.5,-,N/A,,Scattered Clouds,0,2013-09-19 22:53:00
5:53 PM,63.0,42.1,46,29.99,10.0,NE,9.2,-,N/A,,Scattered Clouds,40,2013-09-19 23:53:00
6:53 PM,57.9,43.0,58,30.03,10.0,NE,6.9,-,N/A,,Scattered Clouds,50,2013-09-20 00:53:00
7:53 PM,55.0,44.1,67,30.04,10.0,East,5.8,-,N/A,,Scattered Clouds,80,2013-09-20 01:53:00
8:53 PM,53.1,44.1,71,30.07,10.0,East,4.6,-,N/A,,Scattered Clouds,100,2013-09-20 02:53:00
9:53 PM,52.0,44.1,74,30.09,10.0,SE,4.6,-,N/A,,Scattered Clouds,140,2013-09-20 03:53:00
10:53 PM,50.0,45.0,83,30.09,10.0,SE,11.5,-,N/A,,Scattered Clouds,140,2013-09-20 04:53:00
11:53 PM,48.9,44.1,83,30.10,10.0,South,9.2,-,N/A,,Scattered Clouds,170,2013-09-20 05:53:00